{"data":{"norad_id":58884,"epoch":"2026-05-25T03:59:49.932096Z","epoch_age_seconds":50799,"freshness":"FRESH","line1":"1 58884U 24020J   26145.16655014  .00000713  00000+0  36204-4 0  9996","line2":"2 58884  53.1617 301.2413 0000865  76.8447 283.2650 15.30195779130149","mean_motion":15.30195779,"eccentricity":8.65e-5,"inclination_deg":53.1617,"raan_deg":301.2413,"arg_perigee_deg":76.8447,"mean_anomaly_deg":283.265,"bstar":3.6204e-5,"rev_number":13014,"period_min":94.105605293269,"perigee_km":474.63485654928,"apogee_km":475.82048863764,"semimajor_km":6853.3646725935,"source":"CELESTRAK","updated_at":"2026-05-25T13:38:18.785333Z"}}